Theta_e
304 298 295 298 300 299 297 296 295 298 300 297 297 298 301 304 304 304 305 306 307 309 312 313 313 313 316 323 325 325 324 323 324 323 321 319 318 317 313 317 317 324 325 322
299 295 300 301 300 298 297 294 294 298 300 297 297 297 301 303 304 305 305 306 308 309 311 312 312 312 312 315 321 322 322 321 321 321 319 317 316 317 314 308 308 314 316 316
295 297 300 299 297 295 295 294 294 294 298 299 296 295 298 303 305 306 307 308 309 309 309 311 311 310 311 311 315 317 319 319 318 318 317 315 315 309 305 303 303 304 309 311
297 300 297 296 295 296 291 298 296 294 293 289 296 288 296 299 301 304 306 307 308 309 310 310 311 309 310 311 313 315 316 316 316 316 315 313 308 305 307 308 303 299 301 304
295 296 295 294 295 298 294 297 296 295 293 293 293 289 294 299 298 301 304 308 310 312 312 310 310 310 310 311 312 313 313 314 314 314 314 311 308 313 312 308 300 297 296 299
297 298 299 298 297 298 298 296 295 295 293 286 292 291 292 296 299 302 305 308 309 309 308 307 307 308 307 310 310 312 311 311 313 313 313 311 311 312 306 302 299 295 293 292
294 295 297 298 294 296 296 293 286 286 285 285 293 292 294 300 302 304 305 308 305 306 306 307 304 303 305 306 307 309 309 308 311 311 311 311 312 313 308 304 299 296 293 291
289 287 294 297 296 293 293 293 288 284 284 288 289 287 293 302 304 305 306 307 306 306 307 306 306 304 304 304 306 307 307 307 309 309 309 310 311 312 308 307 305 299 297 296
290 290 297 296 298 298 292 289 296 289 288 285 289 294 299 302 302 303 304 304 305 307 306 305 304 303 303 303 305 305 305 306 307 308 307 308 309 308 307 305 304 304 300 294
295 289 294 294 296 297 295 298 288 290 284 282 287 291 292 298 299 302 303 304 306 305 303 301 302 302 302 303 304 305 305 305 307 307 306 306 307 306 305 302 300 297 296 290
296 293 289 293 291 292 292 291 293 293 291 286 284 290 301 301 304 303 304 305 305 304 303 302 301 301 302 303 303 303 304 304 306 305 305 305 303 302 299 295 293 290 288 286
297 293 288 290 296 298 297 293 293 289 287 290 289 290 302 303 304 305 304 304 304 303 302 302 301 300 300 301 302 303 303 303 305 304 304 302 301 298 296 293 289 288 287 285
296 288 285 288 293 294 290 294 296 295 292 289 287 290 299 300 300 303 304 303 302 301 300 300 300 300 300 301 301 302 302 303 303 302 301 300 299 296 294 292 289 288 286 284
296 287 287 286 290 292 288 291 294 292 288 289 290 294 299 300 299 301 301 301 302 301 300 299 300 300 300 300 300 301 301 302 301 301 300 298 297 295 292 290 288 287 285 284
293 284 288 290 292 291 289 289 292 290 292 288 292 294 298 301 302 303 304 304 301 300 298 299 300 302 301 300 300 301 301 301 300 299 298 297 296 293 291 288 286 285 284 283
292 285 286 285 290 291 287 288 290 291 293 293 295 294 302 303 303 303 304 302 299 299 299 300 301 301 300 299 299 299 300 299 298 297 296 296 292 290 289 286 285 283 282 282
287 285 285 282 288 286 282 288 289 291 294 293 289 296 300 299 300 302 303 304 303 304 305 304 303 302 300 299 299 298 299 299 296 294 294 292 290 288 287 285 283 282 281 281
286 285 285 282 285 276 290 296 295 293 295 296 296 298 299 300 302 303 303 303 303 304 304 305 306 307 304 301 300 298 297 296 293 292 291 291 288 287 286 284 283 283 281 280
292 287 283 280 281 285 286 289 289 290 291 295 294 296 298 299 301 301 302 300 303 304 305 306 305 304 304 302 300 295 293 293 292 290 290 289 288 286 285 283 283 283 282 280
288 289 284 283 278 276 287 292 293 295 284 289 290 291 291 293 291 297 296 297 298 300 302 301 300 299 298 297 294 291 290 291 290 290 290 290 288 286 285 284 283 283 283 281
282 284 280 280 279 284 290 290 293 283 284 289 289 291 290 289 292 295 297 297 297 297 297 296 294 293 292 290 289 289 289 288 290 289 289 288 287 286 285 284 284 283 282 280
281 281 281 282 279 277 290 289 288 287 289 288 290 291 290 292 293 294 297 296 295 294 295 291 287 287 287 287 287 287 287 288 287 287 286 285 285 285 285 283 283 282 281 279
279 284 282 285 284 290 291 291 293 291 291 292 292 292 292 292 292 294 296 296 294 292 289 288 286 284 285 285 286 285 286 285 285 284 283 283 284 284 284 283 281 281 280 279
286 286 281 282 285 286 288 292 290 291 290 291 291 291 292 291 292 290 291 292 289 288 288 285 284 284 284 283 283 284 284 284 282 282 282 282 282 282 283 283 282 281 280 279
283 284 282 282 285 286 288 288 287 286 287 289 289 289 290 290 289 290 289 290 290 288 286 285 284 284 283 283 283 283 283 282 282 282 282 282 283 282 282 282 282 282 282 282
283 280 278 278 284 283 284 286 287 286 286 287 288 288 288 288 288 288 288 289 288 287 285 285 284 283 284 282 282 282 282 282 282 282 282 282 282 282 281 281 281 284 284 284
Wind_Speed
7 10 11 15 17 16 7 9 12 12 4 4 13 20 21 18 18 22 21 20 21 21 17 15 14 16 15 17 18 19 18 18 12 10 10 9 9 7 4 4 4 6 10 12
6 14 14 14 7 9 11 15 17 15 10 3 15 20 24 21 20 23 23 22 22 20 18 15 14 14 17 19 19 18 18 18 15 10 9 7 8 7 5 3 3 4 9 11
17 3 7 11 10 11 15 17 15 16 11 13 12 17 21 19 17 21 23 24 22 20 18 15 16 17 15 17 18 18 18 17 16 14 10 8 6 4 5 5 4 2 5 10
13 14 6 7 14 13 16 14 13 13 6 9 1 12 15 18 18 16 17 19 18 15 14 14 12 17 17 16 15 17 17 17 16 16 12 14 10 8 8 7 4 4 3 5
4 9 15 17 13 11 3 2 5 5 8 13 15 12 7 14 15 16 19 15 13 11 9 10 11 10 12 11 12 13 15 16 16 15 14 11 12 8 7 7 9 6 4 5
6 2 6 7 3 10 12 7 4 2 4 11 15 17 13 14 19 18 15 10 4 5 5 4 2 4 8 8 10 11 15 15 15 15 15 15 14 10 8 9 7 6 5 4
14 12 4 3 6 5 11 7 4 6 6 12 3 11 18 5 9 12 13 4 4 6 5 5 7 7 8 10 11 11 14 15 14 14 14 14 13 13 13 11 7 8 6 4
15 12 17 15 16 10 14 13 8 7 8 13 5 12 8 7 8 12 15 13 5 9 8 8 7 7 9 9 11 12 13 14 15 15 15 13 13 7 8 11 8 7 6 7
12 14 4 1 8 13 8 12 12 13 2 6 12 20 22 12 12 13 14 13 11 9 4 5 5 6 8 9 11 12 13 14 15 15 13 13 12 11 10 10 7 8 9 7
10 19 4 6 4 13 10 3 7 7 7 11 16 18 14 4 13 14 16 15 11 2 2 3 4 6 6 8 10 11 12 14 13 14 12 11 12 11 9 8 9 8 7 9
12 13 4 5 13 15 11 12 9 9 11 8 16 14 13 5 9 13 10 9 7 5 5 6 5 5 6 6 8 10 11 13 12 12 12 12 11 12 11 10 9 10 9 9
8 3 12 18 4 11 16 21 23 10 7 9 11 23 3 3 2 7 10 9 7 3 5 5 6 6 7 8 9 10 10 11 11 11 12 11 11 11 11 11 10 10 11 10
3 4 4 5 11 5 9 18 20 21 8 15 14 29 8 3 1 2 3 1 4 4 5 4 5 7 8 10 9 10 10 11 10 11 12 12 13 12 11 11 11 11 12 11
8 2 5 11 2 5 9 17 20 18 13 26 18 37 17 9 4 5 8 6 5 6 6 5 6 7 7 9 10 11 11 11 11 12 13 13 13 12 11 11 11 12 12 13
11 7 8 16 20 16 5 8 16 24 29 21 31 27 26 15 16 9 5 5 8 8 8 9 8 8 10 11 10 11 11 11 12 13 13 13 10 10 10 11 11 10 10 10
2 3 4 5 12 10 9 14 18 18 26 28 33 31 18 11 7 7 10 9 10 9 12 11 12 10 11 12 11 11 12 13 13 13 13 10 10 10 9 9 9 9 10 11
4 4 3 4 1 9 12 7 16 14 19 21 24 30 15 17 13 13 14 15 13 12 10 12 12 12 12 13 13 13 12 10 12 12 11 10 11 11 10 10 11 12 12 11
4 3 3 5 1 8 3 4 6 12 18 20 21 29 23 22 22 18 10 10 12 13 16 16 15 15 8 8 8 10 8 11 12 12 11 11 11 11 11 12 12 11 11 12
15 7 4 5 8 9 15 13 9 7 10 6 10 16 17 17 13 15 14 17 17 17 15 14 9 8 6 5 7 7 7 8 10 12 12 12 13 13 12 13 13 12 11 10
14 11 7 6 7 7 7 4 3 7 8 6 8 11 13 13 5 6 18 15 19 17 14 10 9 9 8 6 3 6 8 10 13 12 12 12 11 12 13 12 11 10 11 10
6 6 14 12 9 7 3 1 1 8 4 2 1 7 8 6 7 14 10 12 10 12 13 11 9 7 6 6 4 6 6 11 7 6 7 9 10 11 11 10 9 10 9 9
9 7 7 8 8 11 2 3 1 1 4 5 5 12 17 10 10 12 13 6 10 12 10 8 8 9 6 5 4 5 6 2 4 5 7 8 9 8 9 12 9 11 11 11
6 6 2 4 4 5 3 2 5 4 5 2 6 13 14 15 15 13 14 9 5 10 6 2 5 8 5 4 3 4 1 4 5 6 6 7 7 7 8 9 9 8 8 8
2 2 5 3 10 10 8 2 3 4 4 8 9 11 13 16 12 9 10 12 6 4 7 2 2 5 7 2 5 3 2 3 5 7 8 8 9 9 9 7 8 8 9 8
7 1 5 8 12 11 9 4 9 14 11 8 10 8 10 12 13 10 10 11 8 5 3 3 4 4 4 1 4 3 3 6 6 6 7 7 6 8 8 7 7 7 8 9
10 18 11 13 14 13 17 17 21 17 17 16 16 14 15 8 12 10 13 10 9 7 3 3 5 5 5 2 2 2 2 4 7 7 7 6 6 6 6 6 5 9 8 13
Wind_Direction
200 217 215 223 229 253 296 289 278 281 126 257 261 271 274 271 267 264 262 258 258 253 242 225 210 209 209 211 207 203 197 199 190 188 188 196 203 194 197 191 182 187 176 175
182 228 233 243 325 271 247 264 267 279 295 233 276 273 276 270 257 257 260 259 256 257 249 223 205 199 206 208 204 203 202 197 194 189 189 196 197 203 195 168 170 187 164 166
226 198 234 236 234 239 244 254 264 270 302 247 278 275 255 257 251 255 257 260 260 259 260 241 194 200 209 215 208 206 202 198 193 193 187 186 173 151 183 194 190 193 165 165
244 236 187 206 235 229 260 249 248 264 278 282 48 288 292 291 267 244 251 252 254 251 244 243 241 199 212 215 211 204 203 201 196 194 191 188 194 195 203 190 156 137 136 158
205 196 208 223 226 202 247 78 210 229 250 293 255 261 267 252 249 256 258 255 251 247 230 230 218 228 218 208 208 202 201 202 194 196 195 187 207 206 173 168 155 162 160 158
278 352 215 225 80 202 137 108 108 193 262 260 261 244 266 239 226 254 264 262 315 175 194 190 173 216 210 193 196 196 202 203 197 199 197 201 204 188 171 172 167 166 165 163
216 216 164 178 120 118 203 183 233 231 197 254 352 261 249 270 296 264 276 299 151 171 213 232 191 193 195 188 193 194 201 203 198 200 202 208 208 196 190 183 171 165 169 181
211 223 186 184 216 181 196 203 211 233 245 273 105 236 258 224 286 258 250 248 262 259 240 232 214 186 182 185 188 192 196 204 199 198 207 207 210 200 198 193 172 174 181 185
220 231 175 151 197 179 168 213 252 267 299 282 254 262 271 213 229 238 251 260 261 257 239 227 202 199 178 184 191 195 197 202 198 197 204 204 204 196 198 187 172 179 183 162
245 262 164 138 191 242 236 245 201 213 238 243 256 257 256 227 237 241 241 243 249 220 169 157 187 186 176 188 184 195 201 202 202 195 200 201 199 196 199 184 181 170 168 151
235 250 130 159 207 201 190 221 226 230 224 238 266 258 257 283 238 237 241 220 179 165 164 156 178 176 178 196 194 194 201 201 201 199 199 196 192 192 183 181 169 162 155 157
218 296 246 225 205 243 229 224 210 214 209 241 264 270 141 341 309 217 194 176 149 159 157 162 170 177 188 198 202 201 202 205 202 202 200 195 197 191 186 183 166 158 163 162
39 193 229 243 247 206 245 234 240 239 258 246 226 260 26 63 345 218 202 188 174 176 178 183 191 207 208 194 198 205 206 208 198 201 200 201 201 193 190 185 169 167 163 164
90 242 239 244 82 12 236 234 234 230 226 240 240 261 250 256 272 228 216 235 227 216 207 221 215 216 224 218 198 207 208 207 202 203 203 207 201 193 189 181 171 170 169 166
163 212 218 252 275 291 244 294 281 231 236 233 251 251 260 260 263 253 272 242 238 227 224 229 233 214 214 222 209 213 214 203 198 205 208 211 203 193 185 175 168 164 172 176
116 179 171 245 263 267 281 264 244 269 264 254 254 260 263 288 343 273 276 220 224 224 232 241 239 218 212 219 211 204 212 203 196 205 209 201 186 185 179 172 167 160 168 167
159 162 178 250 119 326 288 218 230 243 246 256 260 266 299 287 291 297 291 272 275 277 257 244 242 229 220 217 212 212 207 191 196 200 199 191 181 180 177 167 167 170 173 167
163 170 187 257 102 247 272 341 248 246 241 242 256 267 279 288 292 291 293 301 289 278 285 291 290 285 243 235 213 217 196 195 191 196 195 186 177 176 176 175 181 178 175 180
202 196 221 248 238 304 298 286 258 207 280 332 305 328 324 320 293 276 356 345 304 288 297 305 333 325 317 242 222 188 181 194 190 200 198 188 181 181 180 187 182 174 172 180
217 215 213 199 242 250 279 131 124 128 254 51 21 6 4 346 300 323 354 343 330 320 317 317 322 310 297 291 210 184 191 192 205 201 199 191 178 180 181 183 180 174 172 176
160 191 222 227 239 262 352 356 289 237 319 309 292 357 343 337 297 295 305 319 312 313 313 324 325 315 311 322 250 225 207 215 210 185 179 175 171 175 173 168 176 166 164 157
190 193 200 217 227 246 121 103 273 163 195 200 283 325 310 275 265 279 299 302 309 319 329 330 321 316 330 325 269 256 242 192 137 153 157 160 155 162 159 159 169 164 162 158
236 241 251 221 229 110 113 147 352 358 325 328 305 304 294 301 292 290 299 306 289 303 300 289 309 312 313 315 297 266 220 136 137 136 136 141 144 151 152 157 164 162 166 163
249 350 245 4 258 308 339 83 115 17 245 286 284 291 298 290 289 283 286 290 277 286 298 182 294 305 304 311 288 275 141 138 141 143 152 147 150 149 155 159 169 166 172 171
259 250 231 266 281 292 290 319 323 319 311 282 286 277 280 289 288 279 280 279 274 252 241 281 293 268 272 263 287 295 158 155 158 145 147 146 152 158 160 170 177 184 187 182
234 248 253 266 286 301 293 301 307 308 300 304 301 306 296 258 277 288 287 286 280 277 219 244 254 258 277 194 235 274 253 198 154 151 153 159 153 162 160 156 162 199 186 196